Regional Weather Roundup
Issued by NWS

Home | Current Version | Previous Version | Text Only | Print | Product List | Glossary On
Versions: 1 2 3 4 5 6 7 8 9 10 11 12 13 14 15 16 17 18 19 20 21 22 23 24 25 26 27 28 29 30 31 32 33 34 35 36 37 38 39 40 41 42 43 44 45 46 47 48 49 50
000
ASHW40 PHFO 210243
RWRHI

WEATHER ROUNDUP FOR HAWAII
NATIONAL WEATHER SERVICE HONOLULU HI
400 PM HST SAT DEC 20 2014

THIS IS AN AUTOMATED REPORT THAT HAS NOT BEEN QUALITY CONTROLLED.

NOTE..."FAIR" INDICATES FEW OR NO CLOUDS BELOW 12,000 FEET WITH NO
SIGNIFICANT WEATHER AND/OR OBSTRUCTIONS TO VISIBILITY.

* - THESE SITES REPORT LIMITED FIELDS

HIZ001>004-210300-
KAUAI-NIIHAU-

CITY           SKY/WX    TMP DP  RH WIND       PRES   REMARKS
LIHUE APT      CLOUDY    80  64  58 E6        29.99S
PORT ALLEN*      N/A     81 N/A N/A SE7         N/A
POIPU*           N/A     82 N/A N/A E2          N/A
PRINCEVILLE*     N/A     79 N/A N/A MISG        N/A
KOKOLE POINT*  NOT AVBL
MOLOAA DAIRY*  NOT AVBL
WAIMEA HTS*      N/A     81  59  47 S6          N/A
PUU OPAE*        N/A     70  63  78 CALM        N/A
PUU LUA*       NOT AVBL
MAKAHA RIDGE*  NOT AVBL
$$

HIZ005>011-210300-
OAHU-

CITY           SKY/WX    TMP DP  RH WIND       PRES   REMARKS
HONOLULU       PTSUNNY   80  64  58 S5        29.96S
KALAELOA       CLOUDY    78  64  61 VRB3      29.98R
KANEOHE MCB    PTSUNNY   79  68  69 NE8       29.97S
WHEELER FIELD  FAIR      78  64  63 NE10      29.98S
BELLOWS*         N/A    N/A N/A N/A N6          N/A
KAHUKU*          N/A    N/A N/A N/A E9G17       N/A
WHEELER*       NOT AVBL
WAIANAE HARBOR NOT AVBL
DILLINGHAM*      N/A     84  64  51 NE5G12      N/A
KAHUKU TRN*      N/A     75  64  69 E7G18       N/A
KAWAILOA*        N/A     75  64  69 E9G17       N/A
KII*             N/A     79  68  69 E12         N/A
MAKUA RANGE*     N/A     81  64  57 W5          N/A
OAHU FOREST NW   N/A     64 -11   4 CALM        N/A
SCHOFIELD BRK*   N/A     75  61  60 MISG        N/A
SCHOFIELD S*   NOT AVBL
WAIANAE VLY*     N/A     79  64  61 S3G15       N/A
KUAOKALA*        N/A     75  63  64 CALM        N/A
HONOULIUULI*   NOT AVBL
MOKUOLOE IS*     N/A    N/A N/A N/A MISG        N/A
PALEHUA*         N/A     84  64  51 CALM        N/A
WAIAWA PHB*    NOT AVBL
$$

HIZ012>013-210300-
MOLOKAI-

CITY           SKY/WX    TMP DP  RH WIND       PRES   REMARKS
MOLOKAI AIRPT  MOSUNNY   79  63  57 SE9       29.98S
KALAUPAPA      NOT AVBL
MAKAPULAPAI*     N/A     77  68  73 E12G18      N/A
MOLOKAI 1*       N/A     66  63  88 NW2G8       N/A
PUU ALII*        N/A     65  60  84 SE1         N/A
$$

HIZ016-210300-
KAHOOLAWE-

CITY           SKY/WX    TMP DP  RH WIND       PRES   REMARKS
KAHOOLAWE*       N/A     73 N/A N/A E16G23      N/A
HAKIOAWA*        N/A     75  62  64 MISG      30.41R
HONOKANAIA*      N/A     82  64  54 E17G26    29.97S
KANELOA*         N/A     79  64  61 E18G28      N/A
KEALIALALO*    NOT AVBL
LUA MAKIKA*    NOT AVBL
$$

HIZ014>015-210300-
LANAI-

CITY           SKY/WX    TMP DP  RH WIND       PRES   REMARKS
LANAI CITY     PTSUNNY   75  64  69 SW7       30.03S
LANAI 1*         N/A     79  68  69 SW8G16      N/A
$$

HIZ017>028-210300-
MAUI-

CITY           SKY/WX    TMP DP  RH WIND       PRES   REMARKS
KAHULUI        MOSUNNY   82  64  54 E9        29.95S
KAPALUA-W MAUI MOSUNNY   81  64  57 SW6       29.97
HANA AIRPORT   PTSUNNY   75  66  73 E5        30.02R
HANA*            N/A     79 N/A N/A E6G12       N/A
HALEAKALA SUMM   N/A     50  -4  10 E28         N/A
MAALAEA BAY*   NOT AVBL
HALEAKALA*     NOT AVBL
KAUPO GAP*       N/A     70  41  35 SE6G22      N/A
KULA 1*          N/A     65  51  61 W3          N/A
$$

HIZ023>026-210300-
BIG ISLAND OF HAWAII COAST AND LOWER SLOPES-

CITY           SKY/WX    TMP DP  RH WIND       PRES   REMARKS
KAILUA KONA    MOSUNNY   81  65  58 W7        29.93S
HILO           SUNNY     80  65  59 E10       29.98S
HONOKAA*       NOT AVBL
KAWAIHAE MWT*    N/A     81 N/A N/A W5          N/A
KAWAIHAE*        N/A     79 N/A N/A SW2         N/A
SOUTH POINT*     N/A     73 N/A N/A NE16G25     N/A
UPOLU AIRPORT*   N/A    N/A N/A N/A E16G23      N/A
KAMUELA*       CLOUDY    68  59  73 SW8       30.06R
HAKALAU*         N/A    N/A N/A N/A S5G12       N/A
KALOKO-HONOKO*   N/A     82  64  54 W8G14     29.93S
PALI 2*          N/A     73  55  53 E12G26      N/A
KEALAKOMO*       N/A     61  46  59 E15G23      N/A
KAUPULEHU*       N/A     75  59  57 W3G12       N/A
KAPAPALA*        N/A     76  60  56 E8G17       N/A
LOWER KAHUKU*    N/A    N/A N/A N/A NE3G14      N/A
PUHE CS*       NOT AVBL
PUHO CS*         N/A     80  64  58 NW7G14      N/A
PTA KEAMUKU*     N/A     64  57  77 CALM        N/A
WAIKOLOA*        N/A     79  57  47 W9G15       N/A
$$

HIZ027>028-210300-
BIG ISLAND OF HAWAII INTERIOR AND SUMMMITS-

CITY           SKY/WX    TMP DP  RH WIND       PRES   REMARKS
BRADSHAW FIELD SUNNY     65  23  20 S24G36    30.23R
MK VISITOR CEN NOT AVBL
MAUNA KEA*       N/A     36 -11  13 S37         N/A  WCI  21
MAUNA LOA*       N/A     52 -17   5 MISG        N/A
MAUNA LOA 1*   NOT AVBL
PTA KIPUKA*      N/A     64  54  68 NW7G15      N/A
PTA RANGE 17*    N/A    N/A N/A N/A SE14G29     N/A
PTA WEST*        N/A     64  57  77 NW9         N/A
NENE CABIN*      N/A    N/A N/A N/A E10G20      N/A
AHUMOA*          N/A     59  51  75 N3G10       N/A
PTA PORTABLE*  NOT AVBL
PUU MALI*      NOT AVBL
$$

HIC003-210300-
NORTHWEST ISLANDS-

CITY           SKY/WX    TMP DP  RH WIND       PRES   REMARKS
MIDWAY ISLAND  MOSUNNY   64  48  55 N17G23    30.18R
MIDWAY NOS*    NOT AVBL
FRENCH FRIGATE NOT AVBL
$$

PHZ110>124-180-210300-
BUOY REPORTS

STATION/POSITION TIME  TEMP    WIND        PRES    WAVE   SWELL
                       AIR SEA DIR/SP/G            HT/PER HT/DIR
                 (UTC) (F)     (DEG/KT/KT) (MB)    (FT/S) (FT/D)
BUOY 51001       NOT AVBL
BUOY 51101       0200   77 77  160/ 10/ 12 1014.5S   6/10   5/250
BUOY 51100       0100   74 75  130/ 10/ 14 1017.1F
BUOY 51003       0200   78 79   70/ 16/ 19 1013.8R   8/ 9   7
BUOY 51004       0108   78 78   80/ 17/ 21 1013.0R  12/10  10/100
BARBERS PT BUOY  NOT AVBL
WAIMEA BAY BUOY  0200      78                N/A     5/11   3/320
KAILUA BAY BUOY  0200      78                N/A     7/ 8   3
LANAI BUOY       0200      78                N/A     3/13   2/280
BARBERS PT 2     0200      78                N/A     6/ 9   3/230
PAUWELA MAUI     0200      77                N/A     8/13   5/340
HILO             0200      78                N/A    10/10   5/ 80
KANEOHE BAY BUOY 0200      77                N/A     6/12   3/360
HANALEI KAUAI    NOT AVBL
KAHULUI HARBOR   0200   80 77   60/  8/ 10 1014.3R
HONOLULU HARBOR  0200   78     240/  5/  6 1015.1R
KILO NALU        NOT AVBL
HILO HARBOR      0200   86     120/  7/ 11 1014.7R
MOKUOLOE         0200   77 75   70/  9/ 12 1015.2F
NAWILIWILI       0200      77                N/A
WHOTS BUOY       NOT AVBL
BUOY 51028       NOT AVBL
$$

......................KEY........................................
  SKY/WX - SKY CONDITIONS/PRESENT WEATHER
  TMP    - TEMPERATURE IN FAHRENHEIT
  DWPT   - DEWPOINT IN FAHRENHEIT
  RH     - RELATIVE HUMIDITY IN PERCENT
  WIND   - DIRECTION AND SPEED /MPH FOR ISLANDS...KTS FOR BUOYS/
  PRES   - MEAN SEA LEVEL PRESSURE IN INCHES OF HG
  VSB    - VISIBILITY IN MILES
  HX     - HEAT INDEX
  WCI    - WIND CHILL INDEX
  VRB    - VARIABLE WIND DIRECTION
  N/A    - NOT AVAILABLE


USA.gov is the U.S. government's official web portal to all federal, state and local government web resources and services.